Flag for Canada

Past Weather in Chibougamau, Quebec, Canada — Yesterday and Last 2 Weeks

Now
30 °F

Light snow. Mostly cloudy.


Feels Like: 20 °F
Forecast: 34 / 21 °F
Wind: 13 mph from Northwest

Location: Chibougamau-Chapais
Current Time: Oct 24, 2020 at 6:14:01 am
Latest Report: Oct 24, 2020 at 5:52 am
Visibility: 5 mi
Pressure29.74 "Hg
Humidity: 93%
Dew Point: 28 °F
Location of ChibougamauLocation

Past Weather in Chibougamau — Graph

°F

Chibougamau Temperature Yesterday

Maximum temperature yesterday: 34 °F (at 4:11 pm)
Minimum temperature yesterday: 30 °F (at 12:00 am)
Average temperature yesterday: 32 °F

High & Low Weather Summary for the Past Weeks

 TemperatureHumidityPressure
High50 °F (Oct 12, 3:00 pm)100% (Oct 9, 11:17 pm)30.42 "Hg (Oct 9, 11:17 pm)
Low25 °F (Oct 19, 11:39 pm)40% (Oct 12, 3:00 pm)29.40 "Hg (Oct 10, 6:44 am)
Average36 °F90%29.98 "Hg
* Reported Oct 9 5:00 am — Oct 24 5:20 am, Chibougamau. Weather by CustomWeather, © 2020

Note: Actual official high and low records may vary slightly from our data, if they occured in-between our weather recording intervals... More about our weather records

Chibougamau Weather History for the Previous 24 Hours

Scroll right to see more
 ConditionsComfort  
Time TempWeatherWind HumidityBarometerVisibility
5:20 am
Sat, Oct 24
30 °FLight snow. Overcast.15 mph93%29.72 "Hg6 mi
5:15 am30 °FLight snow. Mostly cloudy.14 mph93%29.71 "Hg3 mi
4:54 am32 °FLight snow. Mostly cloudy.12 mph93%29.69 "Hg3 mi
4:40 am32 °FLight snow. Mostly cloudy.13 mph93%29.67 "Hg2 mi
4:19 am32 °FLight snow. Overcast.10 mph93%29.64 "Hg2 mi
4:15 am32 °FLight snow. Mostly cloudy.13 mph93%29.64 "Hg2 mi
3:43 am32 °FLight rain. Ice fog.14 mph100%29.61 "Hg2 mi
3:40 am32 °FLight rain. Ice fog.10 mph100%29.61 "Hg2 mi
3:00 am32 °FLight rain. Ice fog.9 mph100%29.58 "Hg1 mi
2:41 am32 °FLight rain. Ice fog.8 mph100%29.58 "Hg5 mi
2:35 am32 °FLight rain. Ice fog.10 mph100%29.57 "Hg6 mi
2:13 am32 °FLight rain. Ice fog.9 mph100%29.55 "Hg3 mi
2:03 am32 °FLight rain. Ice fog.7 mph100%29.54 "Hg5 mi
1:27 am32 °FLight rain. Ice fog.7 mph100%29.51 "Hg3 mi
1:20 am32 °FLight rain. Ice fog.9 mph100%29.52 "Hg2 mi
1:10 am32 °FLight mixture of precip. Ice fog.8 mph100%29.52 "Hg2 mi
12:42 am34 °FLight rain. Fog.9 mph93%29.50 "Hg2 mi
12:35 am34 °FLight rain. Fog.8 mph93%29.50 "Hg2 mi
12:10 am34 °FLight rain. Fog.7 mph100%29.49 "Hg5 mi
11:19 pm
Fri, Oct 23
34 °FLight rain. Fog.5 mph100%29.51 "Hg6 mi
11:07 pm34 °FLight rain. Fog.5 mph100%29.52 "Hg5 mi
10:44 pm34 °FLight rain. Mostly cloudy.6 mph100%29.54 "Hg9 mi
10:00 pm34 °FLight rain. Mostly cloudy.9 mph100%29.60 "Hg9 mi
9:33 pm34 °FLight rain. Fog.9 mph100%29.62 "Hg4 mi
9:19 pm34 °FLight snow. Mostly cloudy.10 mph93%29.65 "Hg2 mi
9:08 pm34 °FRain. Fog.8 mph93%29.67 "Hg4 mi
8:00 pm34 °FLight rain. Overcast.12 mph93%29.73 "Hg7 mi
7:44 pm34 °FLight rain. Overcast.13 mph93%29.76 "Hg8 mi
7:40 pm34 °FLight rain. Fog.12 mph93%29.77 "Hg6 mi
7:00 pm34 °FLight rain. Overcast.8 mph93%29.80 "Hg7 mi
6:28 pm34 °FLight rain. Overcast.8 mph93%29.84 "Hg8 mi
6:15 pm34 °FRain. Overcast.8 mph93%29.85 "Hg9 mi
5:43 pm34 °FLight rain. Mostly cloudy.9 mph93%29.86 "Hg9 mi
5:39 pm34 °FLight rain. Fog.8 mph93%29.86 "Hg6 mi
5:23 pm34 °FLight snow. Overcast.12 mph93%29.85 "Hg2 mi
4:49 pm34 °FLight rain. Fog.10 mph93%29.89 "Hg6 mi
4:41 pm34 °FRain. Fog.10 mph93%29.89 "Hg5 mi
4:11 pm34 °FLight rain. More clouds than sun.14 mph93%29.90 "Hg7 mi
4:00 pm32 °FLight rain. Ice fog.13 mph100%29.92 "Hg3 mi
3:30 pm32 °FLight rain. Ice fog.12 mph100%29.94 "Hg5 mi
3:00 pm32 °FLight rain. Ice fog.9 mph100%29.98 "Hg5 mi
2:40 pm32 °FLight snow. Ice fog.13 mph100%29.98 "Hg3 mi
2:19 pm32 °FLight mixture of precip. Ice fog.10 mph100%30.01 "Hg2 mi
2:03 pm32 °FLight snow. Ice fog.13 mph100%30.02 "Hg2 mi
1:35 pm32 °FLight rain. Mostly cloudy.9 mph100%30.03 "Hg3 mi
1:09 pm32 °FLight rain. Ice fog.9 mph100%30.05 "Hg3 mi
1:03 pm32 °FLight mixture of precip. Ice fog.14 mph93%30.06 "Hg3 mi
12:41 pm32 °FLight snow. More clouds than sun.10 mph93%30.07 "Hg6 mi
12:37 pm32 °FLight snow. Low clouds.13 mph93%30.07 "Hg6 mi
12:15 pm32 °FLight snow. Low clouds.12 mph93%30.10 "Hg3 mi
12:00 pm32 °FLight snow. Cloudy.10 mph93%30.11 "Hg1 mi
11:10 am32 °FLight snow. More clouds than sun.13 mph93%30.13 "Hg1 mi
10:50 am32 °FLight snow. More clouds than sun.10 mph93%30.15 "Hg1 mi
10:38 am32 °FLight snow. More clouds than sun.10 mph93%30.15 "Hg1 mi
10:13 am32 °FLight snow. Mostly cloudy.10 mph93%30.17 "Hg2 mi
9:23 am30 °FLight snow. More clouds than sun.10 mph100%30.20 "Hg1 mi
8:30 am30 °FLight snow. Low clouds.8 mph93%30.22 "Hg1 mi
8:18 am30 °FLight snow. Low clouds.9 mph93%30.22 "Hg1 mi
8:00 am30 °FLight snow. Low clouds.9 mph93%30.23 "Hg1 mi
7:49 am30 °FLight snow. Low clouds.8 mph93%30.23 "Hg1 mi
7:00 am30 °FLight snow. Overcast.8 mph93%30.26 "Hg1 mi
6:45 am30 °FLight snow. Overcast.8 mph93%30.27 "Hg1 mi
6:22 am30 °FLight snow. Overcast.8 mph93%30.28 "Hg2 mi
6:10 am30 °FLight snow. Overcast.6 mph93%30.29 "Hg5 mi
Weather by CustomWeather, © 2020

See weather overview